| time (UTC) | temp F | wind direction | speed knots | gust knots | rain 1hr in | rain 24hr in | rain mn in | humidity % | barometer mb |
| 20260503200039 | 62 | 154 | 0.0 | 4.3 | 0.00 | 0.00 | 0.00 | 73 | 1013.2 |
| 20260503195526 | 62 | 146 | 0.9 | 2.6 | 0.00 | 0.00 | 0.00 | 72 | 1013.2 |
| 20260503195025 | 62 | 134 | 0.0 | 4.3 | 0.00 | 0.00 | 0.00 | 74 | 1013.1 |
| 20260503194543 | 61 | 0 | 0.9 | 4.3 | 0.00 | 0.00 | 0.00 | 74 | 1013.3 |
| 20260503194028 | 61 | 146 | 0.0 | 4.3 | 0.00 | 0.00 | 0.00 | 76 | 1013.3 |
| 20260503193525 | 60 | 138 | 0.0 | 4.3 | 0.00 | 0.00 | 0.00 | 76 | 1013.3 |
| 20260503193047 | 60 | 142 | 1.7 | 4.3 | 0.00 | 0.00 | 0.00 | 75 | 1013.2 |
| 20260503192525 | 60 | 143 | 0.0 | 2.6 | 0.00 | 0.00 | 0.00 | 77 | 1013.3 |
| 20260503192025 | 60 | 0 | 0.0 | 3.5 | 0.00 | 0.00 | 0.00 | 77 | 1013.2 |
| 20260503191541 | 60 | 0 | 0.9 | 3.5 | 0.00 | 0.00 | 0.00 | 74 | 1013.4 |
| 20260503191026 | 60 | 0 | 0.0 | 2.6 | 0.00 | 0.00 | 0.00 | 74 | 1013.3 |
| 20260503190526 | 60 | 0 | 0.0 | 2.6 | 0.00 | 0.00 | 0.00 | 75 | 1013.2 |
| 20260503190039 | 60 | 0 | 0.0 | 2.6 | 0.00 | 0.00 | 0.00 | 75 | 1013.3 |
| 20260503185525 | 60 | 0 | 0.0 | 2.6 | 0.00 | 0.00 | 0.00 | 73 | 1013.2 |
| 20260503185025 | 60 | 0 | 0.0 | 2.6 | 0.00 | 0.00 | 0.00 | 74 | 1013.2 |
| 20260503184550 | 61 | 110 | 0.0 | 2.6 | 0.00 | 0.00 | 0.00 | 74 | 1013.2 |
| 20260503184025 | 61 | 137 | 0.0 | 2.6 | 0.00 | 0.00 | 0.00 | 74 | 1013.2 |
| 20260503183526 | 60 | 131 | 0.0 | 2.6 | 0.00 | 0.00 | 0.00 | 76 | 1013.1 |
| 20260503183057 | 60 | 0 | 0.0 | 2.6 | 0.00 | 0.00 | 0.00 | 77 | 1013.2 |
| 20260503182525 | 59 | 0 | 0.0 | 3.5 | 0.00 | 0.00 | 0.00 | 75 | 1013.1 |
| 20260503182025 | 59 | 0 | 0.0 | 3.5 | 0.00 | 0.00 | 0.00 | 78 | 1013.0 |
| 20260503181536 | 58 | 141 | 0.9 | 3.5 | 0.00 | 0.00 | 0.00 | 78 | 1013.0 |
| 20260503181025 | 58 | 133 | 0.9 | 4.3 | 0.00 | 0.00 | 0.00 | 78 | 1013.0 |
| 20260503180525 | 58 | 138 | 0.9 | 4.3 | 0.00 | 0.00 | 0.00 | 79 | 1013.0 |
| 20260503180042 | 58 | 121 | 0.0 | 3.5 | 0.00 | 0.00 | 0.00 | 80 | 1013.1 |
| 20260503175524 | 58 | 95 | 0.0 | 3.5 | 0.00 | 0.00 | 0.00 | 80 | 1013.0 |
| 20260503175025 | 58 | 135 | 0.9 | 5.2 | 0.00 | 0.00 | 0.00 | 79 | 1013.0 |
| 20260503174539 | 58 | 0 | 0.0 | 5.2 | 0.00 | 0.00 | 0.00 | 79 | 1013.0 |
| 20260503174026 | 58 | 145 | 0.9 | 5.2 | 0.00 | 0.00 | 0.00 | 80 | 1013.0 |
| 20260503173526 | 58 | 0 | 0.0 | 3.5 | 0.00 | 0.00 | 0.00 | 81 | 1013.0 |
| 20260503173105 | 57 | 0 | 0.0 | 3.5 | 0.00 | 0.00 | 0.00 | 82 | 1013.0 |
| 20260503172531 | 57 | 0 | 0.0 | 3.5 | 0.00 | 0.00 | 0.00 | 82 | 1013.1 |
| 20260503172025 | 57 | 138 | 0.9 | 5.2 | 0.00 | 0.00 | 0.00 | 83 | 1013.0 |
| 20260503171541 | 56 | 0 | 0.9 | 5.2 | 0.00 | 0.00 | 0.00 | 83 | 1013.0 |
| 20260503171025 | 56 | 0 | 0.0 | 5.2 | 0.00 | 0.00 | 0.00 | 83 | 1013.1 |
| 20260503170525 | 56 | 137 | 0.9 | 4.3 | 0.00 | 0.00 | 0.00 | 83 | 1013.0 |
| 20260503150525 | 54 | 117 | 0.0 | 0.9 | 0.00 | 0.00 | 0.00 | 89 | 1012.4 |
| 20260503131025 | 52 | 117 | 0.9 | 3.5 | 0.00 | 0.00 | 0.00 | 87 | 1011.0 |
| 20260503130525 | 52 | 0 | 0.0 | 2.6 | 0.00 | 0.00 | 0.00 | 86 | 1010.8 |
| 20260503110525 | 51 | 0 | 0.0 | 0.9 | 0.00 | 0.00 | 0.00 | 90 | 1011.0 |
| 20260503081541 | 53 | 0 | 0.0 | 0.0 | 0.00 | 0.00 | 0.00 | 88 | 1011.8 |
| 20260503081025 | 53 | 0 | 0.0 | 0.0 | 0.00 | 0.00 | 0.00 | 89 | 1011.8 |
| 20260503080525 | 53 | 0 | 0.0 | 0.0 | 0.00 | 0.00 | 0.00 | 89 | 1011.8 |
| 20260503072526 | 53 | 0 | 0.0 | 0.0 | 0.00 | 0.00 | 0.00 | 89 | 1011.7 |
| 20260503072026 | 53 | 0 | 0.0 | 0.0 | 0.00 | 0.00 | 0.00 | 89 | 1011.8 |
| 20260503071542 | 53 | 0 | 0.0 | 0.0 | 0.00 | 0.00 | 0.00 | 89 | 1011.7 |
| 20260503071026 | 53 | 0 | 0.0 | 0.9 | 0.00 | 0.00 | 0.00 | 89 | 1011.7 |
| 20260503070525 | 53 | 0 | 0.0 | 0.9 | 0.00 | 0.00 | 0.00 | 89 | 1011.7 |
| 20260503055025 | 53 | 0 | 0.0 | 0.0 | 0.00 | 0.00 | 0.00 | 88 | 1012.1 |
| 20260503054539 | 53 | 0 | 0.0 | 0.0 | 0.00 | 0.00 | 0.00 | 88 | 1012.2 |
| 20260503054028 | 53 | 0 | 0.0 | 0.0 | 0.00 | 0.00 | 0.00 | 88 | 1012.1 |
| 20260503053529 | 53 | 0 | 0.0 | 0.0 | 0.00 | 0.00 | 0.00 | 88 | 1012.1 |
| 20260503053040 | 53 | 0 | 0.0 | 0.9 | 0.00 | 0.00 | 0.00 | 87 | 1012.2 |
| 20260503052531 | 53 | 0 | 0.0 | 0.9 | 0.00 | 0.00 | 0.00 | 87 | 1012.1 |
| 20260503052026 | 53 | 0 | 0.0 | 0.9 | 0.00 | 0.00 | 0.00 | 87 | 1012.2 |
| 20260503051536 | 53 | 0 | 0.0 | 0.0 | 0.00 | 0.00 | 0.00 | 87 | 1012.1 |
| 20260503051026 | 53 | 0 | 0.0 | 0.0 | 0.00 | 0.00 | 0.00 | 87 | 1012.2 |
| 20260503050526 | 53 | 0 | 0.0 | 0.9 | 0.00 | 0.00 | 0.00 | 87 | 1012.2 |
| 20260503050041 | 53 | 0 | 0.0 | 0.9 | 0.00 | 0.00 | 0.00 | 86 | 1012.2 |
| 20260503045526 | 53 | 0 | 0.0 | 0.9 | 0.00 | 0.00 | 0.00 | 86 | 1012.2 |
| 20260503045026 | 53 | 0 | 0.0 | 0.9 | 0.00 | 0.00 | 0.00 | 86 | 1012.2 |
| 20260503044539 | 53 | 0 | 0.0 | 0.9 | 0.00 | 0.00 | 0.00 | 87 | 1012.2 |
| 20260503044025 | 53 | 0 | 0.0 | 0.0 | 0.00 | 0.00 | 0.00 | 87 | 1012.1 |
| 20260503043525 | 53 | 0 | 0.0 | 0.0 | 0.00 | 0.00 | 0.00 | 87 | 1012.1 |
| 20260503043042 | 53 | 0 | 0.0 | 0.9 | 0.00 | 0.00 | 0.00 | 87 | 1012.2 |
| 20260503042525 | 53 | 0 | 0.0 | 0.9 | 0.00 | 0.00 | 0.00 | 87 | 1012.1 |
| 20260503042025 | 53 | 0 | 0.0 | 0.0 | 0.00 | 0.00 | 0.00 | 87 | 1012.0 |
| 20260503041538 | 53 | 0 | 0.0 | 0.0 | 0.00 | 0.00 | 0.00 | 87 | 1012.0 |
| 20260503041026 | 53 | 0 | 0.0 | 0.0 | 0.00 | 0.00 | 0.00 | 87 | 1012.0 |
| 20260503040527 | 53 | 0 | 0.0 | 0.0 | 0.00 | 0.00 | 0.00 | 87 | 1011.9 |
| 20260503040046 | 53 | 0 | 0.0 | 0.0 | 0.00 | 0.00 | 0.00 | 87 | 1011.9 |
| 20260503035525 | 53 | 0 | 0.0 | 0.0 | 0.00 | 0.00 | 0.00 | 87 | 1011.9 |
| 20260503035026 | 53 | 0 | 0.0 | 0.0 | 0.00 | 0.00 | 0.00 | 87 | 1011.8 |
| 20260503034558 | 53 | 0 | 0.0 | 0.0 | 0.00 | 0.00 | 0.00 | 87 | 1011.7 |
| 20260503034025 | 53 | 0 | 0.0 | 0.9 | 0.00 | 0.00 | 0.00 | 87 | 1011.6 |
| 20260503033525 | 53 | 0 | 0.0 | 0.9 | 0.00 | 0.00 | 0.00 | 86 | 1011.6 |
| 20260503033043 | 53 | 0 | 0.0 | 0.9 | 0.00 | 0.00 | 0.00 | 86 | 1011.5 |
| 20260503032526 | 53 | 0 | 0.0 | 0.9 | 0.00 | 0.00 | 0.00 | 86 | 1011.4 |
| 20260503032026 | 53 | 0 | 0.0 | 0.9 | 0.00 | 0.00 | 0.00 | 86 | 1011.4 |
| 20260503031542 | 53 | 0 | 0.0 | 0.9 | 0.00 | 0.00 | 0.00 | 86 | 1011.3 |
| 20260503031026 | 53 | 0 | 0.0 | 0.9 | 0.00 | 0.00 | 0.00 | 86 | 1011.2 |
| 20260503030525 | 53 | 0 | 0.0 | 1.7 | 0.00 | 0.00 | 0.00 | 86 | 1011.3 |
| 20260503030050 | 54 | 0 | 0.0 | 1.7 | 0.00 | 0.00 | 0.00 | 86 | 1011.1 |
| 20260503025526 | 54 | 0 | 0.0 | 0.9 | 0.00 | 0.00 | 0.00 | 87 | 1011.1 |
| 20260503025025 | 54 | 0 | 0.0 | 1.7 | 0.00 | 0.00 | 0.00 | 87 | 1011.1 |
| 20260503024538 | 54 | 0 | 0.0 | 1.7 | 0.00 | 0.00 | 0.00 | 87 | 1011.2 |
| 20260503024025 | 54 | 124 | 0.0 | 1.7 | 0.00 | 0.00 | 0.00 | 87 | 1011.2 |
| 20260503023526 | 54 | 0 | 0.0 | 2.6 | 0.00 | 0.00 | 0.00 | 87 | 1011.1 |
| 20260503023040 | 54 | 149 | 0.0 | 2.6 | 0.00 | 0.00 | 0.00 | 87 | 1011.1 |
| 20260503022525 | 54 | 139 | 0.0 | 4.3 | 0.00 | 0.00 | 0.00 | 86 | 1011.1 |
| 20260503022026 | 54 | 141 | 0.0 | 4.3 | 0.00 | 0.00 | 0.00 | 86 | 1011.1 |
| 20260503021544 | 55 | 131 | 0.0 | 2.6 | 0.00 | 0.00 | 0.00 | 85 | 1011.1 |
| 20260503021026 | 55 | 124 | 0.0 | 6.1 | 0.00 | 0.00 | 0.00 | 85 | 1011.2 |
| 20260503020528 | 55 | 142 | 0.9 | 6.1 | 0.00 | 0.00 | 0.00 | 84 | 1011.1 |
| 20260503020042 | 55 | 134 | 0.0 | 0.9 | 0.00 | 0.00 | 0.00 | 84 | 1011.2 |
| 20260503015525 | 56 | 0 | 0.0 | 2.6 | 0.00 | 0.00 | 0.00 | 83 | 1011.3 |
| 20260503015025 | 56 | 133 | 0.0 | 3.5 | 0.00 | 0.00 | 0.00 | 83 | 1011.2 |
| 20260503014545 | 56 | 122 | 0.0 | 3.5 | 0.00 | 0.00 | 0.00 | 83 | 1011.3 |
| 20260503014025 | 56 | 136 | 0.0 | 3.5 | 0.00 | 0.00 | 0.00 | 83 | 1011.3 |
| 20260503013526 | 56 | 132 | 0.0 | 5.2 | 0.00 | 0.00 | 0.00 | 82 | 1011.4 |
| 20260503013038 | 57 | 121 | 0.9 | 5.2 | 0.00 | 0.00 | 0.00 | 81 | 1011.3 |
| 20260503012527 | 57 | 143 | 0.9 | 3.5 | 0.00 | 0.00 | 0.00 | 81 | 1011.4 |
| 20260503012026 | 57 | 102 | 0.9 | 3.5 | 0.00 | 0.00 | 0.00 | 81 | 1011.4 |
| 20260503011538 | 58 | 139 | 0.9 | 3.5 | 0.00 | 0.00 | 0.00 | 80 | 1011.4 |
| 20260503011025 | 58 | 146 | 0.9 | 5.2 | 0.00 | 0.00 | 0.00 | 80 | 1011.4 |
| 20260503010525 | 57 | 0 | 1.7 | 5.2 | 0.00 | 0.00 | 0.00 | 80 | 1011.4 |
| 20260503010041 | 58 | 145 | 0.9 | 7.0 | 0.00 | 0.00 | 0.00 | 80 | 1011.4 |
| 20260503005525 | 58 | 107 | 0.9 | 7.0 | 0.00 | 0.00 | 0.00 | 80 | 1011.4 |
| 20260503005027 | 58 | 0 | 0.9 | 7.0 | 0.00 | 0.00 | 0.00 | 79 | 1011.5 |
| 20260503004603 | 58 | 129 | 1.7 | 7.0 | 0.00 | 0.00 | 0.00 | 78 | 1011.5 |
| 20260503004029 | 58 | 134 | 1.7 | 7.0 | 0.00 | 0.00 | 0.00 | 78 | 1011.5 |
| 20260503003526 | 59 | 123 | 1.7 | 6.1 | 0.00 | 0.00 | 0.00 | 78 | 1011.5 |
| 20260503003039 | 59 | 120 | 0.9 | 5.2 | 0.00 | 0.00 | 0.00 | 78 | 1011.5 |
| 20260503002526 | 58 | 136 | 0.9 | 7.0 | 0.00 | 0.00 | 0.00 | 78 | 1011.5 |
| 20260503002029 | 58 | 131 | 1.7 | 7.0 | 0.00 | 0.00 | 0.00 | 78 | 1011.6 |
| 20260503001538 | 58 | 124 | 0.9 | 7.0 | 0.00 | 0.00 | 0.00 | 79 | 1011.5 |
| 20260503001026 | 59 | 156 | 1.7 | 7.0 | 0.00 | 0.00 | 0.00 | 77 | 1011.5 |
| 20260503000525 | 59 | 0 | 0.9 | 7.0 | 0.00 | 0.00 | 0.00 | 77 | 1011.5 |
| 20260503000040 | 59 | 102 | 1.7 | 7.0 | 0.00 | 0.00 | 0.00 | 76 | 1011.7 |
| 20260502235525 | 60 | 106 | 1.7 | 6.1 | 0.00 | 0.00 | 0.00 | 76 | 1011.6 |
| 20260502235026 | 59 | 105 | 0.9 | 6.1 | 0.00 | 0.00 | 0.00 | 77 | 1011.6 |
| 20260502234538 | 59 | 0 | 0.9 | 5.2 | 0.00 | 0.00 | 0.00 | 77 | 1011.7 |
| 20260502234025 | 60 | 150 | 1.7 | 7.8 | 0.00 | 0.00 | 0.00 | 74 | 1011.7 |
| 20260502233528 | 60 | 131 | 1.7 | 7.8 | 0.00 | 0.00 | 0.00 | 75 | 1011.7 |
| 20260502233042 | 60 | 102 | 1.7 | 6.1 | 0.00 | 0.00 | 0.00 | 75 | 1011.7 |
| 20260502232525 | 60 | 147 | 0.9 | 6.1 | 0.00 | 0.00 | 0.00 | 77 | 1011.8 |
| 20260502232025 | 59 | 125 | 0.9 | 6.1 | 0.00 | 0.00 | 0.00 | 78 | 1011.8 |
| 20260502231536 | 59 | 120 | 1.7 | 8.7 | 0.00 | 0.00 | 0.00 | 76 | 1011.9 |
| 20260502231029 | 60 | 110 | 0.9 | 8.7 | 0.00 | 0.00 | 0.00 | 76 | 1011.9 |
| 20260502230525 | 60 | 0 | 1.7 | 6.1 | 0.00 | 0.00 | 0.00 | 75 | 1012.0 |
| 20260502230041 | 61 | 141 | 0.9 | 7.0 | 0.00 | 0.00 | 0.00 | 74 | 1012.1 |
| 20260502225525 | 61 | 123 | 0.9 | 7.8 | 0.00 | 0.00 | 0.00 | 74 | 1012.2 |
| 20260502225025 | 61 | 150 | 1.7 | 7.8 | 0.00 | 0.00 | 0.00 | 73 | 1012.2 |
| 20260502224541 | 61 | 143 | 2.6 | 7.8 | 0.00 | 0.00 | 0.00 | 73 | 1012.3 |
| 20260502224028 | 62 | 102 | 1.7 | 7.8 | 0.00 | 0.00 | 0.00 | 72 | 1012.3 |
| 20260502223527 | 62 | 129 | 0.9 | 7.0 | 0.00 | 0.00 | 0.00 | 74 | 1012.5 |
| 20260502223038 | 61 | 0 | 1.7 | 7.0 | 0.00 | 0.00 | 0.00 | 73 | 1012.5 |
| 20260502222526 | 61 | 105 | 0.9 | 6.1 | 0.00 | 0.00 | 0.00 | 75 | 1012.5 |
| 20260502222028 | 61 | 143 | 1.7 | 5.2 | 0.00 | 0.00 | 0.00 | 74 | 1012.7 |
| 20260502221537 | 61 | 149 | 0.9 | 3.5 | 0.00 | 0.00 | 0.00 | 75 | 1012.7 |
| 20260502221026 | 61 | 144 | 0.9 | 5.2 | 0.00 | 0.00 | 0.00 | 75 | 1012.8 |
| 20260502220526 | 61 | 135 | 0.9 | 6.1 | 0.00 | 0.00 | 0.00 | 75 | 1012.8 |
| 20260502220043 | 61 | 145 | 0.9 | 6.1 | 0.00 | 0.00 | 0.00 | 75 | 1012.7 |
| 20260502215525 | 61 | 122 | 1.7 | 6.1 | 0.00 | 0.00 | 0.00 | 75 | 1012.7 |
| 20260502215024 | 61 | 139 | 1.7 | 6.1 | 0.00 | 0.00 | 0.00 | 77 | 1012.7 |
| 20260502214540 | 61 | 146 | 1.7 | 7.0 | 0.00 | 0.00 | 0.00 | 76 | 1012.7 |
| 20260502214027 | 61 | 121 | 1.7 | 7.0 | 0.00 | 0.00 | 0.00 | 76 | 1012.8 |
| 20260502213528 | 61 | 178 | 1.7 | 6.1 | 0.00 | 0.00 | 0.00 | 74 | 1012.9 |
| 20260502213039 | 61 | 99 | 0.9 | 3.5 | 0.00 | 0.00 | 0.00 | 75 | 1012.8 |
| 20260502212529 | 61 | 143 | 0.0 | 4.3 | 0.00 | 0.00 | 0.00 | 76 | 1012.7 |
| 20260502212025 | 60 | 130 | 1.7 | 4.3 | 0.00 | 0.00 | 0.00 | 76 | 1012.7 |
| 20260502211546 | 60 | 141 | 0.9 | 4.3 | 0.00 | 0.00 | 0.00 | 76 | 1012.9 |
| 20260502211025 | 60 | 137 | 1.7 | 7.0 | 0.00 | 0.00 | 0.00 | 77 | 1012.9 |
| 20260502210525 | 60 | 172 | 0.9 | 7.0 | 0.00 | 0.00 | 0.00 | 77 | 1013.0 |
| 20260502210038 | 60 | 143 | 1.7 | 7.0 | 0.00 | 0.00 | 0.00 | 78 | 1013.2 |
| 20260502205525 | 59 | 139 | 1.7 | 7.8 | 0.00 | 0.00 | 0.00 | 79 | 1013.3 |
| 20260502205025 | 59 | 162 | 0.9 | 7.8 | 0.00 | 0.00 | 0.00 | 80 | 1013.3 |
| 20260502204538 | 58 | 128 | 1.7 | 6.1 | 0.00 | 0.00 | 0.00 | 80 | 1013.3 |
| 20260502204025 | 58 | 146 | 1.7 | 6.1 | 0.00 | 0.00 | 0.00 | 80 | 1013.2 |
| 20260502203524 | 58 | 148 | 0.9 | 6.1 | 0.00 | 0.00 | 0.00 | 81 | 1013.3 |
| 20260502203038 | 58 | 107 | 1.7 | 7.0 | 0.00 | 0.00 | 0.00 | 81 | 1013.5 |
| 20260502202525 | 58 | 0 | 0.9 | 7.0 | 0.00 | 0.00 | 0.00 | 83 | 1013.3 |
| 20260502202027 | 58 | 120 | 1.7 | 5.2 | 0.00 | 0.00 | 0.00 | 81 | 1013.4 |
| 20260502201537 | 58 | 148 | 0.9 | 5.2 | 0.00 | 0.00 | 0.00 | 82 | 1013.5 |
| 20260502201027 | 58 | 103 | 0.9 | 5.2 | 0.00 | 0.00 | 0.00 | 82 | 1013.6 |
| 20260502200529 | 58 | 129 | 0.9 | 4.3 | 0.00 | 0.00 | 0.00 | 83 | 1013.5 |